Evansville, IN

8:20 PM CDT on October 18, 2017 (GMT -0500)
Evansville Regional

Weather History for KEVV - December, 2012

Change the Weather History Date:

Tuesday, December 4, 2012

  Actual Average Record
Temperature  
Mean Temperature 52 °F 39 °F  
Max Temperature 66 °F 48 °F 73 °F (1998)
Min Temperature 38 °F 30 °F 11 °F (1942)
Degree Days  
Heating Degree Days 13 26  
Month to date heating degree days 27 103  
Since 1 July heating degree days 989 964  
Cooling Degree Days 0 0  
Month to date cooling degree days 2 0  
Year to date cooling degree days 1845 1397  
Growing Degree Days 1 (Base 50)    
Moisture  
Dew Point 51 °F    
Average Humidity 75    
Maximum Humidity 93    
Minimum Humidity 56    
Precipitation  
Precipitation 0.31 in 0.13 in 2.21 in (1922)
Month to date precipitation 0.39 0.52  
Year to date precipitation 30.05 42.07  
Snow  
Snow 0.00 in 0.10 in T in (2010)
Month to date snowfall 0.0 0.2  
Since 1 July snowfall T 0.5  
Snow Depth 0.00 in    
Sea Level Pressure  
Sea Level Pressure 30.12 in    
Wind  
Wind Speed 7 mph (WSW)    
Max Wind Speed 17 mph    
Max Gust Speed 23 mph    
Visibility 8 miles    
Events Rain , Thunderstorm    
T = Trace of Precipitation, MM = Missing Value Source: NWS Daily Summary

Daily Weather History Graph

Daily Weather History Graph

Search for Another Location

Airport or City:

Trip Planner

Search our weather history database for the weather conditions in past years. The results will help you decide how hot, cold, wet, or windy it might be!

Date:

Astronomy

Dec. 04, 2012 Rise Set
Actual Time 6:50 AM CST 4:30 PM CST
Civil Twilight 6:21 AM CST 4:59 PM CST
Nautical Twilight 5:48 AM CST 5:32 PM CST
Astronomical Twilight 5:16 AM CST 6:04 PM CST
Moon 10:13 PM CST (12/4) 10:47 AM CST (12/4)
Length of Visible Light 10h 38m
Length of Day
9h 39m
Waning Gibbous, 69% of the Moon is Illuminated
Dec 4
Waning Gibbous
Dec 6
Last Quarter
Dec 13
New
Dec 19
First Quarter
Dec 28
Full

Hourly Weather History & Observations

Time (CST) Temp. Windchill Dew Point Humidity Pressure Visibility Wind Dir Wind Speed Gust Speed Precip Events Conditions
12:54 AM 63.0 °F - 50.0 °F 63% 30.05 in 10.0 mi South 9.2 mph - N/A   Mostly Cloudy
1:54 AM 63.0 °F - 51.1 °F 65% 30.04 in 10.0 mi SSE 8.1 mph - N/A   Mostly Cloudy
2:54 AM 63.0 °F - 52.0 °F 67% 30.04 in 10.0 mi South 8.1 mph - N/A   Overcast
3:54 AM 64.0 °F - 54.0 °F 70% 30.04 in 10.0 mi South 9.2 mph - N/A   Overcast
4:54 AM 64.0 °F - 54.0 °F 70% 30.04 in 10.0 mi South 6.9 mph - 0.00 in   Overcast
5:22 AM 64.4 °F - 53.6 °F 68% 30.04 in 10.0 mi South 8.1 mph - N/A   Overcast
5:54 AM 64.0 °F - 54.0 °F 70% 30.04 in 10.0 mi South 9.2 mph - N/A   Mostly Cloudy
6:06 AM 64.4 °F - 55.4 °F 73% 30.05 in 10.0 mi SSW 9.2 mph - N/A   Scattered Clouds
6:54 AM 64.0 °F - 55.0 °F 73% 30.05 in 10.0 mi SSW 9.2 mph - N/A   Overcast
7:14 AM 64.4 °F - 55.4 °F 73% 30.06 in 10.0 mi SSW 11.5 mph - N/A   Overcast
7:54 AM 64.9 °F - 55.0 °F 70% 30.05 in 10.0 mi SSW 9.2 mph - N/A   Overcast
8:54 AM 66.0 °F - 55.9 °F 70% 30.06 in 10.0 mi SW 12.7 mph - N/A   Overcast
9:54 AM 64.9 °F - 57.0 °F 75% 30.08 in 10.0 mi SW 11.5 mph - N/A   Overcast
10:41 AM 62.6 °F - 57.2 °F 82% 30.10 in 4.0 mi West 11.5 mph - 0.01 in Rain , Thunderstorm Rain
10:45 AM 62.6 °F - 57.2 °F 82% 30.10 in 1.5 mi West 10.4 mph - 0.05 in Rain , Thunderstorm Heavy Rain
10:52 AM 60.8 °F - 57.2 °F 88% 30.09 in 1.0 mi West 6.9 mph - 0.19 in Rain , Thunderstorm Heavy Thunderstorms and Rain
10:54 AM 61.0 °F - 57.9 °F 90% 30.09 in 1.2 mi West 6.9 mph - 0.21 in Rain , Thunderstorm Heavy Thunderstorms and Rain
10:57 AM 60.8 °F - 57.2 °F 88% 30.10 in 2.0 mi West 6.9 mph - 0.01 in Rain , Thunderstorm Thunderstorms and Rain
11:06 AM 60.8 °F - 57.2 °F 88% 30.10 in 4.0 mi West 8.1 mph - 0.03 in Rain , Thunderstorm Rain
11:39 AM 60.8 °F - 59.0 °F 94% 30.08 in 8.0 mi Calm Calm - 0.10 in Rain Light Rain
11:54 AM 62.6 °F - 59.0 °F 88% 30.08 in 10.0 mi SW 4.6 mph - N/A   Overcast
12:54 PM 59.0 °F - 55.0 °F 87% 30.05 in 3.0 mi NW 9.2 mph - 0.00 in   Overcast
1:54 PM 55.9 °F - 53.1 °F 90% 30.08 in 4.0 mi NW 6.9 mph - 0.00 in   Overcast
2:54 PM 55.0 °F - 51.1 °F 86% 30.12 in 10.0 mi NNW 9.2 mph - 0.00 in   Overcast
3:34 PM 53.6 °F - 50.0 °F 88% 30.14 in 10.0 mi NNW 11.5 mph - N/A   Overcast
3:54 PM 54.0 °F - 48.0 °F 80% 30.15 in 10.0 mi North 11.5 mph 19.6 mph N/A   Overcast
4:20 PM 53.6 °F - 46.4 °F 77% 30.17 in 10.0 mi NNW 12.7 mph 18.4 mph N/A   Overcast
4:54 PM 52.0 °F - 41.0 °F 66% 30.19 in 10.0 mi North 8.1 mph - N/A   Mostly Cloudy
5:54 PM 52.0 °F - 41.0 °F 66% 30.21 in 10.0 mi North 10.4 mph - N/A   Overcast
6:54 PM 51.1 °F - 42.1 °F 71% 30.23 in 10.0 mi North 4.6 mph - N/A   Overcast
7:54 PM 48.9 °F - 39.9 °F 71% 30.24 in 10.0 mi North 4.6 mph - N/A   Scattered Clouds
8:54 PM 46.9 °F - 39.9 °F 77% 30.26 in 10.0 mi NNW 4.6 mph - N/A   Clear
9:54 PM 45.0 °F - 39.0 °F 80% 30.26 in 10.0 mi Calm Calm - N/A   Clear
10:54 PM 43.0 °F - 39.0 °F 86% 30.27 in 10.0 mi Calm Calm - N/A   Clear
11:54 PM 37.9 °F 35.5 °F 36.0 °F 93% 30.29 in 10.0 mi SSW 3.5 mph - N/A   Clear